GW5578 Weather Reports


time (UTC)temp
C
wind
direction
speed
KPH
gust
KPH
rain 1hr
cm
rain 24hr
cm
rain mn
cm
humidity
%
barometer
mb
20260502123047 11 302 4.8 11.3 0.00 0.00 0.00 89 1023.6
20260502121603 11 306 3.2 12.9 0.00 0.00 0.00 89 1023.6
20260502114554 11 336 4.8 12.9 0.00 0.00 0.00 88 1023.9
20260502113054 11 273 4.8 12.9 0.00 0.00 0.00 86 1024.2
20260502111555 12 248 4.8 16.1 0.00 0.00 0.00 83 1024.2
20260502110051 12 255 4.8 12.9 0.00 0.00 0.00 82 1024.2
20260502104548 12 279 3.2 11.3 0.00 0.00 0.00 82 1024.3
20260502103056 12 286 0.0 6.4 0.00 0.00 0.00 83 1024.4
20260502101611 12 238 3.2 16.1 0.00 0.00 0.00 81 1024.5
20260502100105 12 245 4.8 16.1 0.00 0.00 0.00 79 1024.5
20260502080103 11 295 0.0 4.8 0.00 0.00 0.00 85 1024.9
20260502070049 10 0 0.0 4.8 0.00 0.00 0.00 87 1025.0
20260502064548 10 0 0.0 0.0 0.00 0.00 0.00 87 1024.9
20260502063057 10 0 0.0 3.2 0.00 0.00 0.00 87 1025.0
20260502061543 10 0 0.0 1.6 0.00 0.00 0.00 86 1025.0
20260502060101 10 232 0.0 4.8 0.00 0.00 0.00 86 1025.1
20260502054551 10 0 0.0 3.2 0.00 0.00 0.00 84 1025.0
20260502053057 10 0 0.0 4.8 0.00 0.00 0.00 84 1025.1
20260502051557 10 300 0.0 4.8 0.00 0.00 0.00 83 1025.0
20260502050054 10 0 0.0 3.2 0.00 0.00 0.00 83 1025.0
20260502044553 10 282 0.0 4.8 0.00 0.00 0.00 83 1025.0
20260502043052 10 269 1.6 6.4 0.00 0.00 0.00 83 1024.9
20260502041548 10 0 0.0 1.6 0.00 0.00 0.00 83 1024.9
20260502040051 11 0 0.0 3.2 0.00 0.00 0.00 83 1024.9
20260502034551 11 0 0.0 1.6 0.00 0.00 0.00 83 1024.8
20260502033056 11 0 0.0 3.2 0.00 0.00 0.00 83 1024.9
20260502031551 11 264 3.2 9.7 0.00 0.00 0.00 83 1024.9
20260502030048 11 275 0.0 0.0 0.00 0.00 0.00 84 1024.9
20260502024553 11 0 0.0 0.0 0.00 0.00 0.00 84 1024.8
20260502023048 11 0 0.0 0.0 0.00 0.00 0.00 84 1024.8
20260502021552 11 0 0.0 0.0 0.00 0.00 0.00 84 1024.9
20260502020052 11 0 0.0 0.0 0.00 0.00 0.00 84 1024.9
20260502014557 11 0 0.0 0.0 0.00 0.00 0.00 84 1025.0
20260502013057 11 0 0.0 0.0 0.00 0.00 0.00 84 1025.1
20260502011604 11 0 0.0 0.0 0.00 0.00 0.00 85 1025.2
20260502010049 11 0 0.0 0.0 0.00 0.00 0.00 85 1025.4
20260502004558 11 0 0.0 0.0 0.00 0.00 0.00 84 1025.3
20260502003049 11 0 0.0 4.8 0.00 0.00 0.00 84 1025.6
20260502001551 11 0 0.0 1.6 0.00 0.00 0.00 84 1025.7
20260502000107 11 0 0.0 0.0 0.00 0.00 0.00 84 1025.9
20260501234549 11 0 0.0 4.8 0.00 0.46 0.00 84 1025.9
20260501233046 11 0 0.0 3.2 0.00 0.46 0.00 83 1026.0
20260501231555 11 0 0.0 4.8 0.00 0.46 0.00 83 1026.0
20260501230047 11 0 0.0 1.6 0.00 0.46 0.00 82 1026.1
20260501224557 11 0 0.0 4.8 0.00 0.46 0.00 82 1026.0
20260501223044 12 0 0.0 4.8 0.00 0.46 0.00 82 1026.0
20260501221618 12 66 1.6 6.4 0.00 0.46 0.00 82 1026.1
20260501220056 12 0 0.0 3.2 0.00 0.46 0.00 82 1026.1
20260501214555 12 57 0.0 8.0 0.00 0.46 0.46 81 1026.2
20260501213056 12 0 1.6 9.7 0.00 0.46 0.46 81 1026.2
20260501211551 12 67 3.2 9.7 0.00 0.46 0.46 80 1026.2
20260501210054 12 0 1.6 6.4 0.00 0.46 0.46 79 1026.3
20260501204553 12 148 1.6 9.7 0.00 0.46 0.46 79 1026.2
20260501203050 12 0 3.2 11.3 0.00 0.46 0.46 78 1026.1
20260501201556 12 37 1.6 9.7 0.00 0.46 0.46 79 1025.9
20260501200054 12 119 1.6 11.3 0.00 0.46 0.46 79 1025.9
20260501194550 12 0 0.0 6.4 0.00 0.46 0.46 79 1025.7
20260501193051 12 138 1.6 11.3 0.00 0.46 0.46 78 1025.5
20260501191552 12 50 0.0 12.9 0.00 0.46 0.46 79 1025.2
20260501190059 12 49 1.6 9.7 0.00 0.46 0.46 78 1025.1
20260501184556 13 54 4.8 19.3 0.00 0.46 0.46 78 1025.0
20260501183049 13 5 1.6 11.3 0.00 0.46 0.46 77 1024.8
20260501181549 13 38 1.6 4.8 0.00 0.46 0.46 78 1024.6
20260501180053 13 111 6.4 16.1 0.00 0.46 0.46 77 1024.6
20260501174550 14 24 6.4 14.5 0.00 0.46 0.46 75 1024.5
20260501173051 14 57 4.8 14.5 0.00 0.46 0.46 72 1024.5
20260501171549 15 0 0.0 12.9 0.00 0.46 0.46 70 1024.2
20260501170058 15 44 1.6 8.0 0.00 0.46 0.46 70 1024.1
20260501164553 15 71 3.2 14.5 0.00 0.46 0.46 68 1023.8
20260501163050 15 69 4.8 16.1 0.00 0.46 0.46 68 1023.6
20260501161550 15 47 4.8 11.3 0.00 0.46 0.46 71 1023.6
20260501160111 15 41 1.6 19.3 0.00 0.46 0.46 71 1023.6
20260501154629 16 63 6.4 16.1 0.00 0.46 0.46 67 1023.6
20260501153104 16 39 1.6 14.5 0.00 0.46 0.46 68 1023.5
20260501151556 17 69 3.2 12.9 0.00 0.46 0.46 62 1022.9
20260501150106 17 0 1.6 8.0 0.00 0.46 0.46 59 1023.1
20260501144608 17 328 1.6 8.0 0.00 0.46 0.46 60 1022.7
20260501143118 17 281 3.2 17.7 0.00 0.46 0.46 60 1022.9